Location: Campillo
(40.8621°N, 4.2488°W)
Time: 12:17:44
(UTC+00:00)

Cosmos 1743 - Pass Details

Date: 11 May 2021
Orbit: 511 x 525 km, 82.6° (Epoch: 13 June)

Event Time Altitude Azimuth Distance (km) Brightness Sun altitude
Rises 22:45:29 0° 352° (N) 2,649 7.5 -27.6°
Reaches altitude 10° 22:47:37 10° 353° (N) 1,759 6.3 -27.7°
Enters shadow 22:49:53 34° 355° (N) 873 4.3 -27.9°
